Weather observations for the past three days for
New Smyrna Beach Municipal Airport
Imperial (Metric)
Date Time (edt) Wind (mph) Vis. (mi.) Weather Sky Cond. Temperature (ºF) Relative Humidity Wind Chill (°F) Heat Index (°F) Pressure Precipitation (in)
Air Dwpt 6 hour altimeter (in) sea level (mb) 1 hr 3 hr 6 hr
Max. Min.
12 11:47 W 8 10.00 Fair CLR 91.4 71.6 52% 99 30.07 0.0
12 10:47 W 8 10.00 Fair CLR 87.8 73.4 62% 96 30.05 0.0
12 09:47 W 5 10.00 Fair CLR 84.2 73.4 70% 91 30.05 0.0
12 08:47 NW 5 10.00 Fair CLR 80.6 75.2 84% 86 30.04 0.0
12 07:47 W 7 10.00 Fair CLR 77 75.2 94% 78 30.01 0.0
12 06:47 W 7 10.00 Partly Cloudy SCT050 75.2 75.2 100% 73 29.98 0.0
11 21:47 SW 7 10.00 A Few Clouds FEW030 80.6 80.6 100% 89 29.95 0.0
11 20:47 SW 7 10.00 A Few Clouds FEW030 82.4 82.4 100% 96 29.95 0.0
11 19:47 SW 7 10.00 A Few Clouds FEW030 84.2 80.6 89% 98 29.95 0.0
11 18:47 SW 7 10.00 A Few Clouds FEW030 86 80.6 84% 102 29.92 0.0
11 17:47 SW 7 10.00 A Few Clouds FEW030 86 80.6 84% 102 29.92 0.0
11 16:47 SW 7 10.00 A Few Clouds FEW030 86 80.6 84% 102 29.94 0.0
11 15:47 S 9 10.00 A Few Clouds FEW043 86 78.8 79% 99 29.96 0.0
11 14:47 SW 9 10.00 A Few Clouds FEW043 86 77 75% 97 29.96 0.0
11 13:47 W 8 10.00 Partly Cloudy SCT015 86 77 75% 97 29.96 0.0
11 12:47 W 8 10.00 Partly Cloudy SCT015 86 78.8 79% 99 29.97 0.0
11 11:47 W 9 9.00 Partly Cloudy SCT012 82.4 82.4 100% 96 29.97 0.0
11 10:47 W 9 9.00 Mostly Cloudy BKN008 80.6 80.6 100% 89 29.99 0.0
11 09:47 W 7 9.00 Mostly Cloudy SCT016 BKN050 78.8 78.8 100% 83 29.98 0.0
11 08:47 W 6 7.00 Mostly Cloudy SCT016 BKN050 78.8 78.8 100% 83 29.98 0.0
11 07:47 Calm 7.00 Mostly Cloudy SCT016 BKN050 78.8 78.8 100% 83 29.96 0.0
11 06:47 N 6 G 12 6.00 Thunderstorm in Vicinity Light Rain SCT016 BKN025 BKN031 77 77 100% 78 29.95 0.0
10 21:50 Calm 10.00 Overcast BKN031 OVC080 78.8 78.8 100% 83 29.97 0.0
10 20:50 Calm 10.00 Partly Cloudy SCT020 SCT050 80.6 77 89% 87 30 0.0
10 19:50 Calm 10.00 Partly Cloudy SCT020 SCT050 80.6 78.8 94% 88 29.98 0.0
10 18:50 Calm 10.00 Partly Cloudy SCT020 SCT050 80.6 77 89% 87 29.97 0.0
10 17:50 Calm 6.00 Fog/Mist SCT020 SCT050 OVC080 80.6 75.2 84% 86 29.97 0.0
10 16:50 NW 5 10.00 Overcast SCT040 SCT050 OVC055 78.8 77 94% 83 29.98 0.0
10 15:50 W 12 G 22 10.00 Overcast SCT040 SCT050 OVC055 77 75.2 94% 78 29.99 0.0
10 14:50 W 12 G 22 9.00 Thunderstorm Rain SCT040 SCT050 OVC055 75.2 75.2 100% 73 30 0.0
10 13:47 N 13 G 21 10.00 Partly Cloudy SCT040 SCT050 SCT070 82.4 77 84% 91 29.99 0.0
10 12:47 W 9 G 16 10.00 Partly Cloudy FEW035 SCT045 91.4 77 63% 105 29.99 0.0
10 11:47 W 8 10.00 Partly Cloudy FEW035 SCT040 89.6 77 67% 103 29.99 0.0
10 10:47 W 8 10.00 Partly Cloudy SCT025 89.6 80.6 75% 108 30 0.0
10 09:47 NW 9 G 15 10.00 A Few Clouds FEW018 86 82.4 89% 105 30.01 0.0
10 08:47 W 7 10.00 Fair CLR 82.4 82.4 100% 96 30.01 0.0
10 07:47 SW 5 10.00 Partly Cloudy SCT120 78.8 78.8 100% 83 30 0.0
10 06:50 SW 5 10.00 Fair CLR 77 77 100% 78 29.99 0.0
09 21:50 SW 5 10.00 Partly Cloudy FEW050 SCT100 78.8 75.2 89% 82 30.01 0.0
09 20:50 SW 5 10.00 Partly Cloudy FEW050 SCT100 78.8 75.2 89% 82 30 0.0
09 19:50 W 8 10.00 Mostly Cloudy BKN100 80.6 75.2 84% 86 29.99 0.0
09 18:50 W 5 10.00 Mostly Cloudy BKN100 80.6 75.2 84% 86 30 0.0
09 17:50 W 8 10.00 Overcast OVC090 78.8 77 94% 83 30.02 0.0
09 16:50 W 9 10.00 Overcast OVC090 78.8 77 94% 83 30.02 0.0
09 15:50 W 15 10.00 Overcast SCT020 OVC110 77 77 100% 78 30.03 0.0
09 13:47 E 12 10.00 Partly Cloudy SCT030 89.6 78.8 71% 105 30.01 0.0
Date Time (edt) Wind (mph) Vis. (mi.) Weather Sky Cond. Air Dwpt Max. Min. Relative Humidity Wind Chill (°F) Heat Index (°F) altimeter (in) sea level (mb) 1 hr 3 hr 6 hr
6 hour
Temperature (ºF) Pressure Precipitation (in)